This demonstration page uses our WeatherBlox Daily Observations layout. Learn more.

Left ArrowRight Arrow

30.00354, -91.81873

Hourly Observations for July 13, 2022

Temp ( °F °C ) Dew Point ( °F °C ) Humidity (%) Winds ( mph kmh ) Pressure ( in mb ) Visibility ( mi km ) Precip ( " mm )
12:53 am 00:53 Clear 78 25.6 75 23.9 90 90 Calm 29.93 1014 10 16 0.00 0.00
1:53 am 01:53 Clear 78 25.6 75 23.9 90 90 Calm 29.93 1014 8 13 0.00 0.00
2:53 am 02:53 Clear 77 25 75 23.9 94 94 SE 3 6 29.93 1014 9 14 0.00 0.00
3:40 am 03:40 Mostly Cloudy with Mist and Fog 76 24.4 75 23.9 97 97 Calm 29.94 1014 6 10 0.00 0.00
3:53 am 03:53 Mostly Cloudy 77 25 75 23.9 94 94 SSE 3 6 29.94 1014 7 11 0.00 0.00
4:09 am 04:09 Partly Cloudy 77 25 75 23.9 94 94 Calm 29.94 1014 8 13 0.00 0.00
4:53 am 04:53 Mostly Clear 77 25 75 23.9 94 94 SE 3 6 29.95 1014 10 16 0.00 0.00
5:53 am 05:53 Clear 76 24.4 74 23.3 94 94 Calm 29.96 1015 8 13 0.00 0.00
6:53 am 06:53 Sunny 77 25 75 23.9 94 94 Calm 29.98 1015 10 16 0.00 0.00
7:53 am 07:53 Sunny 81 27.2 77 25 88 88 SSE 5 7 29.99 1016 10 16 0.00 0.00
8:53 am 08:53 Sunny 84 28.9 78 25.6 82 82 SW 3 6 30.01 1016 10 16 0.00 0.00
9:53 am 09:53 Sunny 85 29.4 76 24.4 75 75 Calm 30.00 1016 10 16 0.00 0.00
10:10 am 10:10 Mostly Cloudy 86 30 76 24.4 72 72 Calm 30.01 1016 10 16 0.00 0.00
10:18 am 10:18 Partly Cloudy 87 30.6 75 23.9 67 67 Calm 30.01 1016 10 16 0.00 0.00
10:53 am 10:53 Sunny 89 31.7 73 22.8 59 59 Calm 30.02 1017 10 16 0.00 0.00
11:53 am 11:53 Partly Cloudy 89 31.7 74 23.3 61 61 VRB 6 9 30.02 1017 10 16 0.00 0.00
12:53 pm 12:53 Partly Cloudy 91 32.8 75 23.9 59 59 VRB 3 6 30.01 1016 10 16 0.00 0.00
1:53 pm 13:53 Mostly Cloudy 91 32.8 78 25.6 66 66 S 12 19 29.99 1016 10 16 0.00 0.00
2:53 pm 14:53 Partly Cloudy 91 32.8 76 24.4 61 61 S 9 15 29.99 1016 10 16 0.00 0.00
3:53 pm 15:53 Sunny 86 30 76 24.4 72 72 S 10 17 29.98 1015 10 16 0.00 0.00
4:53 pm 16:53 Mostly Sunny 88 31.1 76 24.4 68 68 SSW 10 17 29.98 1015 10 16 0.00 0.00
5:53 pm 17:53 Sunny 88 31.1 76 24.4 68 68 SSW 13 20 29.96 1015 10 16 0.00 0.00
6:53 pm 18:53 Partly Cloudy 86 30 75 23.9 70 70 SSW 12 19 29.96 1014 10 16 0.00 0.00
7:53 pm 19:53 Sunny 81 27.2 76 24.4 85 85 SSW 6 9 29.96 1015 10 16 0.00 0.00
8:53 pm 20:53 Clear 79 26.1 76 24.4 90 90 SSW 3 6 29.97 1015 10 16 0.00 0.00
9:50 pm 21:50 Mostly Cloudy 79 26 75 24 89 89 undefined N/A 29.99 1015 10 16 0.00 0.00
9:53 pm 21:53 Mostly Cloudy 80 26.7 76 24.4 87 87 undefined N/A 29.99 1016 10 16 0.00 0.00
10:53 pm 22:53 Mostly Cloudy 81 27.2 76 24.4 85 85 SE 5 7 30.03 1017 10 16 0.00 0.00
11:00 pm 23:00 Partly Cloudy 81 27.2 76 24.4 85 85 ESE 3 6 30.04 1017 10 16 0.00 0.00
11:53 pm 23:53 Clear 79 26.1 75 23.9 88 88 SE 7 11 30.02 1017 10 16 0.00 0.00

Powered by AerisWeather